Time,TemperatureF,DewpointF,PressureIn,WindDirection,WindDirectionDegrees,WindSpeedMPH,WindSpeedGustMPH,Humidity,HourlyPrecipIn,Conditions,Clouds,dailyrainin,SoftwareType,DateUTC
2013-03-02 00:00:00,30.0,21.0,-100.00,North,-999,-999.0,-999.0,70,-99.99,,,-99.99,,2013-03-02 07:00:00,
2013-03-02 00:52:00,30.0,21.0,-100.00,North,-999,-999.0,-999.0,70,-99.99,,,-99.99,,2013-03-02 07:52:00,
2013-03-02 01:00:00,31.0,22.0,-100.00,North,-999,-999.0,-999.0,69,-99.99,,,0.01,,2013-03-02 08:00:00,
2013-03-02 01:52:00,31.0,22.0,-100.00,North,-999,-999.0,-999.0,69,-99.99,,,0.01,,2013-03-02 08:52:00,
2013-03-02 02:00:00,31.0,21.0,-100.00,North,-999,-999.0,-999.0,66,-99.99,,,-99.99,,2013-03-02 09:00:00,
2013-03-02 02:52:00,31.0,21.0,-100.00,North,-999,-999.0,-999.0,66,-99.99,,,-99.99,,2013-03-02 09:52:00,
2013-03-02 03:00:00,31.0,21.0,-100.00,North,-999,-999.0,-999.0,66,-99.99,,,-99.99,,2013-03-02 10:00:00,
2013-03-02 03:52:00,31.0,21.0,-100.00,North,-999,-999.0,-999.0,66,-99.99,,,-99.99,,2013-03-02 10:52:00,
2013-03-02 04:00:00,31.0,21.0,-100.00,North,-999,-999.0,-999.0,67,-99.99,,,0.00,,2013-03-02 11:00:00,
2013-03-02 04:52:00,31.0,21.0,-100.00,North,-999,-999.0,-999.0,67,-99.99,,,0.00,,2013-03-02 11:52:00,
2013-03-02 05:00:00,31.0,20.0,-100.00,North,-999,-999.0,-999.0,62,-99.99,,,-99.99,,2013-03-02 12:00:00,
2013-03-02 05:53:00,31.0,20.0,-100.00,North,-999,-999.0,-999.0,62,-99.99,,,-99.99,,2013-03-02 12:53:00,
2013-03-02 06:00:00,31.0,20.0,-100.00,North,-999,-999.0,-999.0,63,-99.99,,,-99.99,,2013-03-02 13:00:00,
2013-03-02 07:00:00,29.0,20.0,-100.00,North,-999,-999.0,-999.0,66,-99.99,,,0.00,,2013-03-02 14:00:00,
2013-03-02 07:52:00,29.0,20.0,-100.00,North,-999,-999.0,-999.0,66,-99.99,,,0.00,,2013-03-02 14:52:00,
2013-03-02 08:00:00,33.0,21.0,-100.00,North,-999,-999.0,-999.0,60,-99.99,,,-99.99,,2013-03-02 15:00:00,
2013-03-02 08:52:00,33.0,21.0,-100.00,North,-999,-999.0,-999.0,60,-99.99,,,-99.99,,2013-03-02 15:52:00,
2013-03-02 09:00:00,37.0,20.0,-100.00,North,-999,-999.0,-999.0,51,-99.99,,,-99.99,,2013-03-02 16:00:00,
2013-03-02 09:52:00,37.0,20.0,-100.00,North,-999,-999.0,-999.0,51,-99.99,,,-99.99,,2013-03-02 16:52:00,
2013-03-02 10:00:00,40.0,20.0,-100.00,North,-999,-999.0,-999.0,44,-99.99,,,-99.99,,2013-03-02 17:00:00,
2013-03-02 10:52:00,40.0,20.0,-100.00,North,-999,-999.0,-999.0,44,-99.99,,,-99.99,,2013-03-02 17:52:00,
2013-03-02 11:00:00,42.0,18.0,-100.00,North,-999,-999.0,-999.0,37,-99.99,,,-99.99,,2013-03-02 18:00:00,
2013-03-02 11:52:00,42.0,18.0,-100.00,North,-999,-999.0,-999.0,37,-99.99,,,-99.99,,2013-03-02 18:52:00,
2013-03-02 12:00:00,44.0,17.0,-100.00,North,-999,-999.0,-999.0,33,-99.99,,,-99.99,,2013-03-02 19:00:00,
2013-03-02 12:52:00,44.0,17.0,-100.00,North,-999,-999.0,-999.0,33,-99.99,,,-99.99,,2013-03-02 19:52:00,
2013-03-02 13:00:00,46.0,18.0,-100.00,North,-999,-999.0,-999.0,32,-99.99,,,0.00,,2013-03-02 20:00:00,
2013-03-02 13:52:00,46.0,18.0,-100.00,North,-999,-999.0,-999.0,32,-99.99,,,0.00,,2013-03-02 20:52:00,
2013-03-02 14:00:00,46.0,15.0,-100.00,North,-999,-999.0,-999.0,29,-99.99,,,-99.99,,2013-03-02 21:00:00,
2013-03-02 14:52:00,46.0,15.0,-100.00,North,-999,-999.0,-999.0,29,-99.99,,,-99.99,,2013-03-02 21:52:00,
2013-03-02 15:00:00,41.0,14.0,-100.00,North,-999,-999.0,-999.0,33,-99.99,,,-99.99,,2013-03-02 22:00:00,
2013-03-02 15:52:00,41.0,14.0,-100.00,North,-999,-999.0,-999.0,33,-99.99,,,-99.99,,2013-03-02 22:52:00,
2013-03-02 16:00:00,40.0,17.0,-100.00,North,-999,-999.0,-999.0,39,-99.99,,,0.00,,2013-03-02 23:00:00,
2013-03-02 16:52:00,40.0,17.0,-100.00,North,-999,-999.0,-999.0,39,-99.99,,,0.00,,2013-03-02 23:52:00,
2013-03-02 17:00:00,38.0,19.0,-100.00,North,-999,-999.0,-999.0,46,-99.99,,,-99.99,,2013-03-03 00:00:00,
2013-03-02 17:52:00,38.0,19.0,-100.00,North,-999,-999.0,-999.0,46,-99.99,,,-99.99,,2013-03-03 00:52:00,
2013-03-02 18:00:00,35.0,17.0,-100.00,North,-999,-999.0,-999.0,47,-99.99,,,-99.99,,2013-03-03 01:00:00,
2013-03-02 18:52:00,35.0,17.0,-100.00,North,-999,-999.0,-999.0,47,-99.99,,,-99.99,,2013-03-03 01:52:00,
2013-03-02 19:00:00,33.0,19.0,-100.00,North,-999,-999.0,-999.0,57,-99.99,,,0.00,,2013-03-03 02:00:00,
2013-03-02 19:52:00,33.0,19.0,-100.00,North,-999,-999.0,-999.0,57,-99.99,,,0.00,,2013-03-03 02:52:00,
2013-03-02 20:00:00,32.0,19.0,-100.00,North,-999,-999.0,-999.0,58,-99.99,,,-99.99,,2013-03-03 03:00:00,
2013-03-02 20:52:00,32.0,19.0,-100.00,North,-999,-999.0,-999.0,58,-99.99,,,-99.99,,2013-03-03 03:52:00,
2013-03-02 21:00:00,32.0,19.0,-100.00,North,-999,-999.0,-999.0,59,-99.99,,,-99.99,,2013-03-03 04:00:00,
2013-03-02 21:52:00,32.0,19.0,-100.00,North,-999,-999.0,-999.0,59,-99.99,,,-99.99,,2013-03-03 04:52:00,
2013-03-02 22:00:00,32.0,20.0,-100.00,North,-999,-999.0,-999.0,59,-99.99,,,0.00,,2013-03-03 05:00:00,
2013-03-02 22:52:00,32.0,20.0,-100.00,North,-999,-999.0,-999.0,59,-99.99,,,0.00,,2013-03-03 05:52:00,
2013-03-02 23:00:00,33.0,20.0,-100.00,North,-999,-999.0,-999.0,59,-99.99,,,-99.99,,2013-03-03 06:00:00,
2013-03-02 23:52:00,33.0,20.0,-100.00,North,-999,-999.0,-999.0,59,-99.99,,,-99.99,,2013-03-03 06:52:00,